FW8870 Weather Reports


Display with metric or nautical units.
time (UTC)temp
F
wind
direction
speed
MPH
gust
MPH
rain 1hr
in
rain 24hr
in
rain mn
in
humidity
%
barometer
mb
20260507002254 59 328 0.0 0.0 0.00 0.00 0.00 82 1021.8
20260507001751 59 66 0.0 0.0 0.00 0.00 0.00 82 1021.7
20260507001248 59 217 0.0 0.0 0.00 0.00 0.00 82 1021.5
20260507000744 59 101 0.0 0.0 0.00 0.00 0.00 83 1021.7
20260507000240 59 197 1.0 2.0 0.00 0.00 0.00 83 1021.5
20260506235737 59 185 0.0 0.0 0.00 0.00 0.00 84 1021.4
20260506235232 59 7 0.0 0.0 0.00 0.00 0.00 83 1021.6
20260506234730 59 144 1.0 2.0 0.00 0.00 0.00 82 1021.2
20260506234227 59 192 0.0 0.0 0.00 0.00 0.00 83 1021.4
20260506233724 59 188 0.0 0.0 0.00 0.00 0.00 83 1021.6
20260506233221 59 231 0.0 0.0 0.00 0.00 0.00 84 1021.4
20260506232717 59 86 0.0 0.0 0.00 0.00 0.00 84 1021.6
20260506232212 58 282 0.0 0.0 0.00 0.00 0.00 86 1021.5
20260506231710 58 204 0.0 0.0 0.00 0.00 0.00 86 1021.7
20260506231208 58 233 0.0 0.0 0.00 0.00 0.00 87 1021.5
20260506230704 58 319 0.0 0.0 0.00 0.00 0.00 88 1021.7
20260506230202 58 161 0.0 0.0 0.00 0.00 0.00 86 1021.6
20260506225658 58 216 0.0 0.0 0.00 0.00 0.00 87 1021.8
20260506225155 58 192 0.0 0.0 0.00 0.00 0.00 87 1022.1
20260506224651 58 294 0.0 0.0 0.00 0.00 0.00 89 1021.8
20260506224148 57 346 0.0 0.0 0.00 0.00 0.00 88 1021.6
20260506223645 57 65 0.0 0.0 0.00 0.00 0.00 89 1021.9
20260506223140 57 313 0.0 0.0 0.00 0.00 0.00 89 1021.9
20260506222637 57 316 0.0 0.0 0.00 0.00 0.00 89 1021.8
20260506222133 57 11 0.0 0.0 0.00 0.00 0.00 88 1021.7
20260506221632 57 327 0.0 0.0 0.00 0.00 0.00 88 1021.8
20260506221130 56 318 0.0 0.0 0.00 0.00 0.00 89 1021.8
20260506220626 56 334 0.0 0.0 0.00 0.00 0.00 89 1021.9
20260506220121 56 289 0.0 0.0 0.00 0.00 0.00 88 1021.8
20260506215618 56 308 0.0 0.0 0.00 0.00 0.00 89 1022.0
20260506215113 56 337 0.0 0.0 0.00 0.00 0.00 89 1021.8
20260506214610 56 339 0.0 0.0 0.00 0.00 0.00 90 1022.0
20260506214108 56 333 0.0 0.0 0.00 0.00 0.00 90 1021.9
20260506213606 56 327 0.0 0.0 0.00 0.00 0.00 90 1021.8
20260506213103 56 330 0.0 0.0 0.00 0.00 0.00 90 1021.9
20260506212600 56 331 0.0 0.0 0.00 0.00 0.00 91 1021.9
20260506212054 56 305 0.0 0.0 0.00 0.00 0.00 92 1021.9
20260506211551 56 338 0.0 0.0 0.00 0.00 0.00 92 1021.9
20260506211048 56 319 0.0 0.0 0.00 0.00 0.00 92 1022.1
20260506210544 56 345 0.0 0.0 0.00 0.00 0.00 92 1022.0
20260506210041 55 321 0.0 0.0 0.00 0.00 0.00 91 1022.0
20260506205538 55 342 0.0 0.0 0.00 0.00 0.00 91 1021.9
20260506205033 56 328 0.0 0.0 0.00 0.00 0.00 92 1022.0
20260506204531 56 333 0.0 0.0 0.00 0.00 0.00 91 1022.1
20260506204028 56 355 0.0 0.0 0.00 0.00 0.00 91 1022.0
20260506203526 56 351 0.0 0.0 0.00 0.00 0.00 91 1022.1
20260506203022 56 332 0.0 0.0 0.00 0.00 0.00 91 1021.9
20260506202520 56 317 0.0 0.0 0.00 0.00 0.00 91 1021.8
20260506202016 56 341 0.0 0.0 0.00 0.00 0.00 91 1021.9
20260506201514 56 321 0.0 0.0 0.00 0.00 0.00 91 1021.7
20260506201010 56 317 0.0 0.0 0.00 0.00 0.00 91 1021.8
20260506200507 56 334 0.0 0.0 0.00 0.00 0.00 91 1021.9
20260506200004 56 323 0.0 0.0 0.00 0.00 0.00 90 1022.0
20260506195501 57 351 0.0 0.0 0.00 0.00 0.00 91 1021.7
20260506194956 57 309 0.0 0.0 0.00 0.00 0.00 91 1021.7
20260506194454 57 307 0.0 0.0 0.00 0.00 0.00 90 1021.5
20260506193950 57 327 0.0 0.0 0.00 0.00 0.00 91 1021.5
20260506193448 57 309 0.0 0.0 0.00 0.00 0.00 91 1021.5
20260506192944 57 338 0.0 0.0 0.00 0.00 0.00 90 1021.6
20260506192442 57 317 0.0 0.0 0.00 0.00 0.00 90 1021.5
20260506191938 57 311 0.0 0.0 0.00 0.00 0.00 90 1021.3
20260506191435 57 320 0.0 0.0 0.00 0.00 0.00 90 1021.4
20260506190931 57 299 0.0 0.0 0.00 0.00 0.00 91 1021.5
20260506190428 57 331 0.0 0.0 0.00 0.00 0.00 92 1021.3
20260506185925 57 317 0.0 0.0 0.00 0.00 0.00 92 1021.4
20260506185422 57 350 0.0 0.0 0.00 0.00 0.00 92 1021.5
20260506184919 57 333 0.0 0.0 0.00 0.00 0.00 92 1021.4
20260506184416 57 326 0.0 0.0 0.00 0.00 0.00 91 1021.7
20260506183913 57 169 0.0 0.0 0.00 0.00 0.00 91 1021.6
20260506183408 57 270 0.0 0.0 0.00 0.00 0.00 92 1021.4
20260506182906 57 282 0.0 0.0 0.00 0.00 0.00 91 1021.2
20260506182403 57 322 0.0 0.0 0.00 0.00 0.00 92 1021.2
20260506181900 57 117 0.0 0.0 0.00 0.00 0.00 92 1021.0
20260506181358 57 33 0.0 0.0 0.00 0.00 0.00 91 1021.3
20260506180855 57 20 0.0 0.0 0.00 0.00 0.00 90 1021.5
20260506180351 57 309 0.0 0.0 0.00 0.00 0.00 92 1021.3
20260506175848 57 298 0.0 0.0 0.00 0.00 0.00 91 1021.2
20260506175344 57 348 0.0 0.0 0.00 0.00 0.00 91 1021.1
20260506174841 57 320 0.0 0.0 0.00 0.00 0.00 91 1021.2
20260506174339 57 13 0.0 0.0 0.00 0.00 0.00 91 1021.1
20260506173836 57 326 0.0 0.0 0.00 0.00 0.00 91 1021.2
20260506173333 57 302 0.0 0.0 0.00 0.00 0.00 91 1021.5
20260506172830 57 40 0.0 0.0 0.00 0.00 0.00 91 1021.2
20260506172327 57 336 0.0 0.0 0.00 0.00 0.00 91 1021.2
20260506171824 57 344 0.0 0.0 0.00 0.00 0.00 92 1021.1
20260506171321 56 339 0.0 0.0 0.00 0.00 0.00 92 1020.9
20260506170819 56 330 0.0 0.0 0.00 0.00 0.00 92 1021.2
20260506170314 56 325 0.0 0.0 0.00 0.00 0.00 92 1021.0
20260506165814 56 327 0.0 0.0 0.00 0.00 0.00 93 1021.2
20260506165311 56 355 0.0 0.0 0.00 0.00 0.00 93 1021.2
20260506164807 56 337 0.0 0.0 0.00 0.00 0.00 92 1021.1
20260506164304 56 314 0.0 0.0 0.00 0.00 0.00 92 1021.1
20260506163801 55 292 0.0 0.0 0.00 0.00 0.00 93 1021.0
20260506163256 56 25 0.0 0.0 0.00 0.00 0.00 93 1021.2
20260506162752 56 319 0.0 0.0 0.00 0.00 0.00 94 1021.3
20260506162250 55 337 0.0 0.0 0.00 0.00 0.00 93 1021.3
20260506161747 56 342 0.0 0.0 0.00 0.00 0.00 93 1021.1
20260506161244 56 88 0.0 0.0 0.00 0.00 0.00 92 1021.2
20260506160742 57 51 0.0 0.0 0.00 0.00 0.00 93 1021.4
20260506160238 56 333 0.0 0.0 0.00 0.00 0.00 92 1021.4
20260506155737 57 344 0.0 0.0 0.00 0.00 0.00 93 1021.4
20260506155233 56 310 0.0 0.0 0.00 0.00 0.00 92 1021.3
20260506153347 56 315 0.0 0.0 0.00 0.00 0.00 91 1021.1
20260506152843 56 265 0.0 0.0 0.00 0.00 0.00 91 1020.8
20260506152341 56 343 0.0 0.0 0.00 0.00 0.00 91 1020.9
20260506151839 56 352 0.0 0.0 0.00 0.00 0.00 91 1020.7
20260506151335 56 236 0.0 0.0 0.00 0.00 0.00 91 1020.8
20260506150833 55 357 0.0 0.0 0.00 0.00 0.00 91 1020.7
20260506150329 56 358 0.0 0.0 0.00 0.00 0.00 91 1020.5
20260506145826 55 326 0.0 0.0 0.00 0.00 0.00 92 1020.8
20260506145322 55 330 0.0 0.0 0.00 0.00 0.00 92 1020.5
20260506144820 55 329 0.0 0.0 0.00 0.00 0.00 92 1020.7
20260506144316 55 349 0.0 0.0 0.00 0.00 0.00 93 1020.7
20260506143815 55 345 0.0 0.0 0.00 0.00 0.00 93 1020.7
20260506143312 55 322 0.0 0.0 0.00 0.00 0.00 93 1020.6
20260506142810 54 327 0.0 0.0 0.00 0.00 0.00 93 1020.8
20260506142307 54 359 0.0 0.0 0.00 0.00 0.00 93 1020.5
20260506141806 54 110 0.0 0.0 0.00 0.00 0.00 93 1020.7
20260506141303 54 342 0.0 0.0 0.00 0.00 0.00 94 1020.7
20260506140801 54 296 0.0 0.0 0.00 0.00 0.00 94 1020.5
20260506140258 54 139 0.0 2.0 0.00 0.00 0.00 94 1020.2
20260506135755 54 1 0.0 0.0 0.00 0.00 0.00 93 1020.5
20260506135251 54 324 0.0 0.0 0.00 0.00 0.00 93 1020.2
20260506134748 53 331 2.0 6.0 0.00 0.00 0.00 94 1020.1
20260506134244 53 296 0.0 0.0 0.00 0.00 0.00 94 1020.1
20260506133741 53 291 0.0 0.0 0.00 0.00 0.00 94 1020.2
20260506133238 53 320 0.0 0.0 0.00 0.00 0.00 94 1020.2
20260506132735 53 113 0.0 0.0 0.00 0.00 0.00 95 1020.3
20260506132232 53 116 0.0 0.0 0.00 0.00 0.00 95 1020.2
20260506131730 52 62 0.0 0.0 0.00 0.00 0.00 97 1020.3
20260506131226 52 331 0.0 0.0 0.00 0.00 0.00 97 1020.3
20260506130723 52 343 0.0 0.0 0.00 0.00 0.00 97 1020.3
20260506130220 52 290 0.0 0.0 0.00 0.00 0.00 96 1020.4
20260506125718 52 331 0.0 0.0 0.00 0.00 0.00 96 1020.4
20260506125215 52 331 0.0 0.0 0.00 0.00 0.00 97 1020.2
20260506124713 52 359 0.0 0.0 0.00 0.00 0.00 96 1020.2
20260506124211 52 81 0.0 0.0 0.00 0.00 0.00 96 1020.1
20260506123708 52 346 0.0 0.0 0.00 0.00 0.00 96 1020.3
20260506123207 52 17 0.0 0.0 0.00 0.00 0.00 96 1020.2
20260506122703 52 106 0.0 0.0 0.00 0.00 0.00 96 1020.2
20260506122201 52 355 0.0 0.0 0.00 0.00 0.00 95 1019.9
20260506121658 52 282 0.0 0.0 0.00 0.00 0.00 95 1019.7
20260506121154 52 102 0.0 0.0 0.00 0.00 0.00 95 1019.8
20260506120653 52 347 0.0 0.0 0.00 0.00 0.00 95 1019.8
20260506120150 52 126 0.0 0.0 0.00 0.00 0.00 95 1019.8
20260506115648 52 144 0.0 0.0 0.00 0.00 0.00 95 1019.5
20260506115146 52 186 1.0 2.0 0.00 0.00 0.00 95 1019.6
20260506114643 52 309 0.0 0.0 0.00 0.00 0.00 95 1019.9
20260506114141 52 159 0.0 0.0 0.00 0.00 0.00 95 1019.8
20260506113639 52 130 0.0 0.0 0.00 0.00 0.00 95 1019.6
20260506113136 52 335 0.0 0.0 0.00 0.00 0.00 95 1019.6
20260506112632 52 138 0.0 0.0 0.00 0.00 0.00 95 1019.6
20260506112130 53 89 0.0 0.0 0.00 0.00 0.00 95 1019.7
20260506111627 52 336 0.0 0.0 0.00 0.00 0.00 95 1019.6
20260506111125 53 84 0.0 0.0 0.00 0.00 0.00 94 1019.6
20260506110622 53 205 0.0 0.0 0.00 0.00 0.00 93 1019.4
20260506110119 53 40 0.0 0.0 0.00 0.00 0.00 94 1019.3
20260506105616 53 111 0.0 0.0 0.00 0.00 0.00 94 1019.0
20260506105113 53 46 0.0 0.0 0.00 0.00 0.00 94 1019.2
20260506104611 53 117 0.0 0.0 0.00 0.00 0.00 94 1019.1
20260506104108 53 188 0.0 0.0 0.00 0.00 0.00 94 1018.9
20260506103605 53 143 0.0 0.0 0.00 0.00 0.00 93 1018.8
20260506103102 53 169 1.0 2.0 0.00 0.00 0.00 93 1018.7
20260506102600 53 119 1.0 2.0 0.00 0.00 0.00 93 1018.9
20260506102057 53 14 2.0 5.0 0.00 0.00 0.00 93 1018.7
20260506101554 53 171 0.0 0.0 0.00 0.00 0.00 92 1018.7
20260506101051 53 186 0.0 2.0 0.00 0.00 0.00 92 1018.8
20260506100549 54 56 0.0 0.0 0.00 0.00 0.00 92 1018.6
20260506100047 54 325 0.0 0.0 0.00 0.00 0.00 92 1018.6
20260506095546 54 288 0.0 0.0 0.00 0.00 0.00 92 1018.6
20260506095042 54 85 1.0 3.0 0.00 0.00 0.00 92 1018.3
20260506094539 54 159 1.0 5.0 0.00 0.00 0.00 92 1018.6
20260506094037 54 329 0.0 0.0 0.00 0.00 0.00 91 1018.5
20260506093535 54 82 0.0 0.0 0.00 0.00 0.00 91 1018.6
20260506093032 55 65 0.0 0.0 0.00 0.00 0.00 91 1018.5
20260506092530 54 8 0.0 0.0 0.00 0.00 0.00 91 1018.4
20260506092027 54 352 0.0 0.0 0.00 0.00 0.00 92 1018.4
20260506091525 54 111 0.0 0.0 0.00 0.00 0.00 92 1018.1
20260506091022 55 146 0.0 0.0 0.00 0.00 0.00 91 1018.3
20260506090520 55 23 0.0 0.0 0.00 0.00 0.00 91 1018.2
20260506090016 55 21 0.0 0.0 0.00 0.00 0.00 91 1018.5
20260506085513 55 350 0.0 0.0 0.00 0.00 0.00 91 1018.2
20260506085009 55 45 0.0 0.0 0.00 0.00 0.00 91 1018.1
20260506084506 55 117 0.0 0.0 0.00 0.00 0.00 91 1018.1
20260506084002 55 10 0.0 1.0 0.00 0.00 0.00 91 1018.2
20260506083500 55 164 0.0 0.0 0.00 0.00 0.00 91 1018.3
20260506082957 55 7 0.0 0.0 0.00 0.00 0.00 90 1018.0
20260506082454 56 123 0.0 0.0 0.00 0.00 0.00 90 1018.0
20260506081949 56 141 0.0 0.0 0.00 0.00 0.00 89 1018.1
20260506081448 56 180 1.0 2.0 0.00 0.00 0.00 89 1018.0
20260506080945 56 334 0.0 0.0 0.00 0.00 0.00 89 1018.0
20260506080442 56 340 0.0 0.0 0.00 0.00 0.00 89 1017.9
20260506073426 57 245 0.0 0.0 0.00 0.00 0.00 88 1017.6
20260506072923 57 111 0.0 0.0 0.00 0.00 0.00 88 1017.6
20260506072420 57 41 5.0 8.0 0.00 0.00 0.00 88 1017.6
20260506071918 57 111 0.0 0.0 0.00 0.00 0.00 89 1017.5
20260506071416 58 25 0.0 0.0 0.00 0.00 0.00 88 1017.6
20260506070912 58 84 0.0 0.0 0.00 0.00 0.00 87 1017.5
20260506070409 58 82 0.0 0.0 0.00 0.00 0.00 87 1017.4
20260506062347 58 198 0.0 2.0 0.00 0.00 0.00 87 1016.9
20260506061842 58 237 0.0 0.0 0.00 0.00 0.00 87 1016.9
20260506061339 58 349 0.0 0.0 0.00 0.00 0.00 87 1017.1
20260506060837 58 334 0.0 0.0 0.00 0.00 0.00 87 1017.1
20260506060335 58 133 0.0 0.0 0.00 0.00 0.00 87 1016.9
20260506051307 59 318 0.0 0.0 0.00 0.00 0.00 85 1016.8
20260506050805 59 60 0.0 0.0 0.00 0.00 0.00 86 1016.8
20260506050302 59 32 0.0 0.0 0.00 0.00 0.00 87 1016.8
20260506044752 57 335 0.0 0.0 0.00 0.00 0.00 90 1016.7
20260506044250 58 316 0.0 0.0 0.00 0.00 0.00 88 1016.4
20260506043747 58 302 0.0 0.0 0.00 0.00 0.00 87 1016.5
20260506043244 58 317 0.0 0.0 0.00 0.00 0.00 89 1016.4
20260506042743 58 340 0.0 0.0 0.00 0.00 0.00 88 1016.2
20260506042241 59 317 0.0 0.0 0.00 0.00 0.00 86 1016.2
20260506041739 60 343 0.0 0.0 0.00 0.00 0.00 82 1016.1
20260506041236 60 325 0.0 0.0 0.00 0.00 0.00 82 1016.2
20260506040733 60 345 0.0 0.0 0.00 0.00 0.00 85 1016.1
20260506040230 60 324 0.0 0.0 0.00 0.00 0.00 85 1015.8
20260506035727 60 357 0.0 0.0 0.00 0.00 0.00 84 1016.1
20260506035224 61 338 0.0 0.0 0.00 0.00 0.00 81 1015.8
20260506034721 61 339 0.0 0.0 0.00 0.00 0.00 82 1015.7
20260506034218 62 0 0.0 0.0 0.00 0.00 0.00 80 1015.7
20260506033715 62 338 0.0 0.0 0.00 0.00 0.00 81 1015.6
20260506033212 62 22 0.0 0.0 0.00 0.00 0.00 81 1015.5
20260506032709 62 334 0.0 0.0 0.00 0.00 0.00 80 1015.5
20260506032206 62 112 0.0 0.0 0.00 0.00 0.00 82 1015.5
20260506031703 62 354 0.0 0.0 0.00 0.00 0.00 82 1015.2
20260506031200 62 353 0.0 0.0 0.00 0.00 0.00 83 1015.5
20260506030658 61 314 0.0 0.0 0.00 0.00 0.00 85 1015.4
20260506030155 62 314 0.0 0.0 0.00 0.00 0.00 84 1015.3
20260506025652 62 314 0.0 0.0 0.00 0.00 0.00 84 1015.3
20260506025148 62 314 0.0 0.0 0.00 0.00 0.00 84 1015.4
20260506024646 62 317 0.0 0.0 0.00 0.00 0.00 83 1015.3
20260506024142 63 317 0.0 0.0 0.00 0.00 0.00 83 1015.1
20260506023638 63 323 0.0 0.0 0.00 0.00 0.00 82 1015.3
20260506023135 64 323 0.0 0.0 0.00 0.00 0.00 80 1015.4
20260506022633 64 10 0.0 0.0 0.00 0.00 0.00 78 1015.3
20260506022130 64 334 0.0 0.0 0.00 0.00 0.00 77 1015.4
20260506021628 64 319 0.0 0.0 0.00 0.00 0.00 76 1015.3
20260506021125 65 318 0.0 0.0 0.00 0.00 0.00 77 1015.4
20260506020622 65 286 0.0 0.0 0.00 0.00 0.00 75 1015.4
20260506020119 66 334 0.0 0.0 0.00 0.00 0.00 73 1015.2
20260506015617 66 338 0.0 0.0 0.00 0.00 0.00 73 1015.3
20260506015114 66 315 0.0 0.0 0.00 0.00 0.00 75 1015.0
20260506014611 66 328 0.0 0.0 0.00 0.00 0.00 73 1015.3
20260506014106 67 337 0.0 0.0 0.00 0.00 0.00 73 1015.1
20260506013605 67 348 0.0 0.0 0.00 0.00 0.00 71 1015.5
20260506013102 68 354 0.0 0.0 0.00 0.00 0.00 71 1015.3
20260506012558 69 307 0.0 0.0 0.00 0.00 0.00 72 1015.2
20260506012054 69 336 0.0 0.0 0.00 0.00 0.00 70 1015.4
20260506011553 68 357 0.0 0.0 0.00 0.00 0.00 70 1015.2
20260506011048 69 303 0.0 0.0 0.00 0.00 0.00 70 1015.1
20260506010548 69 304 0.0 0.0 0.00 0.00 0.00 69 1015.2
20260506010044 68 303 0.0 0.0 0.00 0.00 0.00 70 1015.1
20260506005541 68 327 0.0 0.0 0.00 0.00 0.00 70 1014.9
20260506005037 68 4 0.0 0.0 0.00 0.00 0.00 70 1015.1
20260506004535 68 4 0.0 0.0 0.00 0.00 0.00 71 1015.2
20260506004031 68 343 0.0 0.0 0.00 0.00 0.00 71 1015.1
20260506003528 68 29 0.0 0.0 0.00 0.00 0.00 71 1015.1
20260506003024 69 209 0.0 0.0 0.00 0.00 0.00 69 1015.0
20260506002520 70 344 0.0 0.0 0.00 0.00 0.00 69 1015.2